[[[{"header":{"parameterUnit":"kt","parameterCategory":2,"dx":1,"dy":1,"la1":30.253999710083008,"la2":30.299108505249023,"lo1":-89.0895004272461,"lo2":-89.04439544677734,"nx":28,"ny":28,"refTime":"2022-10-15T21:00:00:Z","depth":0,"parameterNumber":1,"parameterNumberName":"U-component_of_WINDS"},"data":[0.5357,0.5358,0.5395,0.5415,0.5451,0.5472,0.5491,0.5521,0.5554,0.5584,0.5609,0.5648,0.5698,0.5738,0.5768,0.5786,0.5795,0.5769,0.5794,0.5876,0.589,0.5904,0.5904,0.5771,0.5771,0.5702,0.5702,0.5701,0.5415,0.545,0.5471,0.5517,0.5536,0.5583,0.5624,0.5637,0.5655,0.5696,0.5722,0.5753,0.5783,0.5843,0.5879,0.5883,0.5908,0.589,0.589,0.5897,0.5987,0.5987,0.5869,0.5869,0.5869,0.5869,0.5869,0.587,0.553,0.5529,0.5578,0.5602,0.5635,0.5666,0.5673,0.572,0.5742,0.5782,0.5824,0.5845,0.5895,0.5958,0.5988,0.6008,0.6035,0.6027,0.6025,0.6022,0.6012,0.6105,0.6016,0.6017,0.6017,0.6018,0.6018,0,0.5625,0.5656,0.5679,0.5712,0.5732,0.5762,0.5796,0.5802,0.5882,0.5897,0.5923,0.5945,0.5989,0.6018,0.6061,0.6095,0.6147,0.6157,0.6152,0.613,0.6106,0.6118,0.6261,0.6159,0.616,0.6161,0.6162,0.6163,0.5743,0.5739,0.5808,0.5819,0.5847,0.5864,0.5882,0.5953,0.5969,0.6024,0.6021,0.6052,0.6079,0.6117,0.6174,0.6208,0.6233,0.6189,0.6238,0.6218,0.6231,0.6229,0.623,0.6177,0.6175,0.6174,0.6173,0,0.5806,0.5866,0.5871,0.5941,0.5959,0.5951,0.6012,0.6015,0.6062,0.6073,0.6081,0.6153,0.6178,0.6243,0.6286,0.6319,0.6309,0.6334,0.6293,0.63,0.6267,0.6269,0.615,0.6138,0.6279,0.6277,0.6276,0,0.5929,0.5921,0.6012,0.6012,0.6006,0.6077,0.6069,0.6108,0.6151,0.6161,0.623,0.6238,0.632,0.6338,0.6387,0.6392,0.64,0.6425,0.6438,0.6418,0.6414,0.6427,0.6432,0.6469,0.6469,0.647,0.647,0,0.6019,0.6059,0.606,0.6078,0.6152,0.6151,0.6182,0.6231,0.6249,0.6282,0.6295,0.6329,0.6348,0.6374,0.6436,0.6467,0.6444,0.6498,0.6469,0.6467,0.6459,0.6458,0.6339,0.6471,0.6471,0.6471,0.6471,0,0.6128,0.6158,0.615,0.6213,0.6221,0.6222,0.6259,0.6275,0.6322,0.6352,0.638,0.6433,0.6442,0.6492,0.6506,0.6528,0.6543,0.6569,0.6568,0.6571,0.6624,0.6546,0.6427,0.6416,0.6577,0.6577,0.6578,0,0.6214,0.6222,0.6282,0.6273,0.6286,0.6361,0.6364,0.6403,0.6444,0.6462,0.6508,0.6528,0.6578,0.6594,0.6592,0.6641,0.6612,0.6647,0.6672,0.6672,0.6655,0.6547,0.6512,0.6446,0.659,0.6589,0.6588,0,0.6288,0.6376,0.637,0.6395,0.6457,0.6468,0.6471,0.6506,0.6514,0.6551,0.6555,0.6586,0.6625,0.6649,0.6696,0.6691,0.6634,0.6734,0.6737,0.6713,0.6602,0.6569,0.6558,0.6667,0.6665,0.6664,0.6598,0,0.6436,0.6448,0.6435,0.6486,0.6505,0.6503,0.6569,0.6581,0.6624,0.6666,0.6675,0.6724,0.676,0.6765,0.6807,0.6775,0.679,0.6832,0.6884,0.6813,0.6792,0.6784,0.6908,0.691,0.6912,0.6913,0,0,0.6502,0.6521,0.6587,0.6591,0.6611,0.6689,0.6681,0.671,0.6765,0.6777,0.6807,0.6855,0.6894,0.6897,0.6881,0.6896,0.6896,0.6918,0.6846,0.6838,0.6831,0.6808,0.6799,0.6916,0.6917,0.6917,0.6918,0,0.657,0.6606,0.6597,0.6629,0.6679,0.6724,0.6722,0.6786,0.6813,0.6821,0.6885,0.6899,0.6935,0.6968,0.6989,0.692,0.6967,0.6926,0.6866,0.686,0.685,0.6842,0.6817,0.6807,0.6922,0.6922,0.6922,0,0.6654,0.67,0.6702,0.675,0.6784,0.6795,0.6866,0.6875,0.6884,0.6969,0.6976,0.7012,0.7061,0.7056,0.7056,0.7083,0.7028,0.7058,0.7049,0.705,0.7048,0.7036,0.7025,0.7167,0.7167,0.7168,0,0,0.6703,0.6714,0.6785,0.677,0.6786,0.6854,0.6866,0.691,0.6951,0.6967,0.7014,0.7053,0.7076,0.7089,0.7113,0.7098,0.7114,0.7085,0.7073,0.7064,0.7059,0.7055,0.7043,0.717,0.717,0.717,0,0,0.6726,0.6808,0.6843,0.6833,0.687,0.6939,0.6928,0.6973,0.7001,0.7009,0.7084,0.7097,0.7094,0.7126,0.7147,0.7133,0.7183,0.7179,0.7111,0.7097,0.7086,0.7077,0.7227,0,0,0,0,0,0.6829,0.6798,0.6829,0.6837,0.6898,0.6922,0.6931,0.6991,0.7025,0.7014,0.7061,0.7111,0.7153,0.7174,0.7181,0.7157,0.7197,0.7193,0.7188,0.7097,0.7082,0.7069,0,0,0,0,0,0,0.6832,0.6842,0.683,0.6897,0.6912,0.6924,0.6995,0.701,0.7028,0.7037,0.7101,0.7113,0.7166,0.7174,0.718,0.7155,0.7225,0.7196,0.7191,0.7188,0.7091,0.7079,0.7069,0,0,0,0,0,0.6836,0.6843,0.6925,0.6898,0.6911,0.6984,0.6996,0.701,0.7024,0.7096,0.7111,0.7068,0.7163,0.7173,0.7178,0.7151,0.7221,0.7223,0.7193,0.719,0.7187,0.7085,0,0,0,0,0,0,0.6838,0.6857,0.6929,0.6935,0.6914,0.6984,0.6997,0.7009,0.7084,0.7098,0.7068,0.7074,0.7161,0.7169,0.7176,0.7146,0.7218,0.722,0.7221,0.719,0.7188,0.7185,0,0,0,0,0,0,0.6853,0.6861,0.6932,0.6949,0.6957,0.6984,0.6996,0.7009,0.7084,0.7052,0.706,0.707,0.7152,0.7166,0.7172,0.719,0.7216,0.7218,0.7219,0.722,0.7188,0.7186,0,0,0,0,0,0,0.6858,0.6865,0.6948,0.6954,0.6962,0.7035,0.6998,0.7057,0.7097,0.7047,0.7102,0.7105,0.7148,0.7155,0.7168,0.7184,0.7189,0.7216,0.7217,0.7218,0.7219,0,0,0,0,0,0,0,0.6861,0.6798,0.6893,0.6958,0.6965,0.6992,0.6993,0.6995,0.7097,0.71,0.7102,0.7104,0.7205,0.7207,0.7209,0.7179,0,0,0.7216,0.7217,0,0,0,0,0,0,0,0,0.6797,0.6798,0.6893,0.6894,0.6895,0.6992,0.6993,0.6995,0.7098,0.71,0.7101,0.7103,0.7206,0.7207,0.7209,0,0,0,0,0,0,0,0,0,0,0,0,0,0,0,0.6893,0.6894,0,0.6992,0.6993,0.6994,0.7098,0.71,0.7101,0.7102,0.7206,0.7207,0.7209,0,0,0,0,0,0,0,0,0,0,0,0,0,0,0,0,0,0,0,0,0,0,0,0,0,0,0,0,0,0,0,0,0,0,0,0,0,0,0,0,0,0,0,0,0,0,0,0,0,0,0,0,0,0,0,0,0,0,0,0,0,0,0,0,0,0,0,0,0]}],[{"header":{"parameterUnit":"kt","parameterCategory":2,"dx":1,"dy":1,"la1":30.253999710083008,"la2":30.299108505249023,"lo1":-89.0895004272461,"lo2":-89.04439544677734,"nx":28,"ny":28,"refTime":"2022-10-15T21:00:00:Z","depth":0,"parameterNumber":2,"parameterNumberName":"V-component_of_WINDS"},"data":[-2.6995,-2.7035,-2.7031,-2.7075,-2.708,-2.7109,-2.7118,-2.713,-2.7138,-2.7173,-2.7192,-2.7192,-2.7198,-2.7219,-2.724,-2.7239,-2.7248,-2.7266,-2.7262,-2.7187,-2.7177,-2.7167,-2.7157,-2.7267,-2.7268,-2.734,-2.7341,-2.7341,-2.6943,-2.6948,-2.6969,-2.6988,-2.7007,-2.6989,-2.7002,-2.7019,-2.7045,-2.7055,-2.7073,-2.7103,-2.7126,-2.7126,-2.7147,-2.7165,-2.7157,-2.7171,-2.717,-2.7172,-2.7092,-2.7082,-2.7177,-2.7177,-2.7177,-2.7177,-2.7177,-2.7177,-2.6847,-2.6871,-2.688,-2.6904,-2.6912,-2.6925,-2.6947,-2.6946,-2.6967,-2.6988,-2.6979,-2.7008,-2.7017,-2.7039,-2.7046,-2.7069,-2.7052,-2.7066,-2.707,-2.7073,-2.7079,-2.6977,-2.7072,-2.7071,-2.7071,-2.7071,-2.7071,0,-2.6776,-2.6772,-2.6792,-2.6812,-2.6828,-2.6843,-2.6855,-2.6868,-2.6856,-2.6873,-2.6899,-2.6912,-2.6939,-2.6962,-2.698,-2.6984,-2.6965,-2.6962,-2.6972,-2.6978,-2.6981,-2.6981,-2.6852,-2.696,-2.6959,-2.6958,-2.6957,-2.6957,-2.6681,-2.6708,-2.6715,-2.673,-2.6735,-2.6759,-2.6773,-2.6759,-2.6774,-2.6786,-2.6808,-2.683,-2.6848,-2.6888,-2.6886,-2.6906,-2.6897,-2.6939,-2.69,-2.6904,-2.6899,-2.6898,-2.6901,-2.6947,-2.6948,-2.6949,-2.695,0,-2.6627,-2.662,-2.6661,-2.6665,-2.6666,-2.6696,-2.6699,-2.6722,-2.6717,-2.6748,-2.6754,-2.6748,-2.6772,-2.6763,-2.6788,-2.6783,-2.6832,-2.6823,-2.683,-2.6828,-2.6865,-2.6862,-2.6985,-2.7001,-2.6886,-2.6887,-2.6888,0,-2.6543,-2.658,-2.6567,-2.6591,-2.6631,-2.6616,-2.6656,-2.6657,-2.6663,-2.6687,-2.6664,-2.6687,-2.6671,-2.6693,-2.6684,-2.6723,-2.6727,-2.6725,-2.6723,-2.6728,-2.6728,-2.6735,-2.673,-2.6714,-2.6714,-2.6713,-2.6713,0,-2.6461,-2.6496,-2.6535,-2.6542,-2.6548,-2.6567,-2.6571,-2.6577,-2.659,-2.6605,-2.6613,-2.6631,-2.6641,-2.6655,-2.6644,-2.6618,-2.6691,-2.6652,-2.6689,-2.6689,-2.6705,-2.6705,-2.6816,-2.6712,-2.6712,-2.6711,-2.6711,0,-2.6392,-2.6407,-2.6465,-2.647,-2.6479,-2.6505,-2.6522,-2.6541,-2.655,-2.6546,-2.6557,-2.654,-2.6572,-2.6536,-2.6579,-2.6549,-2.656,-2.6561,-2.6563,-2.6566,-2.6525,-2.659,-2.6696,-2.6708,-2.6568,-2.6567,-2.6566,0,-2.6301,-2.6356,-2.6343,-2.6398,-2.6422,-2.6395,-2.6423,-2.6431,-2.6428,-2.6448,-2.6444,-2.6467,-2.6437,-2.6443,-2.6466,-2.6463,-2.6503,-2.6457,-2.6487,-2.6488,-2.6486,-2.6584,-2.6603,-2.6674,-2.6551,-2.6552,-2.6553,0,-2.6229,-2.6236,-2.6246,-2.6253,-2.6261,-2.628,-2.6312,-2.6331,-2.6345,-2.6356,-2.6382,-2.6413,-2.6392,-2.6401,-2.6389,-2.6413,-2.6475,-2.6387,-2.6387,-2.6404,-2.6541,-2.6559,-2.6571,-2.6462,-2.6464,-2.6465,-2.6541,0,-2.6128,-2.6154,-2.6181,-2.6196,-2.621,-2.6242,-2.6232,-2.6247,-2.6234,-2.623,-2.6268,-2.6271,-2.6289,-2.6299,-2.6286,-2.6345,-2.6334,-2.6311,-2.6274,-2.6338,-2.6363,-2.6373,-2.6238,-2.6237,-2.6236,-2.6235,0,0,-2.6043,-2.6079,-2.6063,-2.6093,-2.6103,-2.6074,-2.611,-2.6117,-2.613,-2.6138,-2.6117,-2.6161,-2.6164,-2.6211,-2.623,-2.6237,-2.6247,-2.6224,-2.6308,-2.6316,-2.6323,-2.635,-2.636,-2.6234,-2.6233,-2.6233,-2.6233,0,-2.6003,-2.6007,-2.6043,-2.6049,-2.6057,-2.605,-2.6059,-2.6061,-2.606,-2.6097,-2.6071,-2.6093,-2.6127,-2.6134,-2.6141,-2.6218,-2.6198,-2.6225,-2.627,-2.6298,-2.6308,-2.6316,-2.6344,-2.6354,-2.623,-2.623,-2.6231,0,-2.5931,-2.5933,-2.5949,-2.597,-2.5975,-2.5999,-2.5958,-2.5986,-2.6004,-2.5969,-2.6006,-2.6005,-2.6013,-2.6058,-2.6078,-2.606,-2.6154,-2.6122,-2.6127,-2.6129,-2.6156,-2.6167,-2.6177,-2.6045,-2.6044,-2.6044,0,0,-2.5899,-2.5922,-2.5919,-2.596,-2.5965,-2.5956,-2.5967,-2.5955,-2.5962,-2.5965,-2.5964,-2.5972,-2.5992,-2.6005,-2.6023,-2.6074,-2.6075,-2.6099,-2.6108,-2.6115,-2.6121,-2.615,-2.6161,-2.6041,-2.6041,-2.6041,0,0,-2.5883,-2.5881,-2.5866,-2.5913,-2.5921,-2.5921,-2.5946,-2.5929,-2.5943,-2.5938,-2.5919,-2.592,-2.5962,-2.5962,-2.5934,-2.601,-2.5973,-2.598,-2.6008,-2.6019,-2.6027,-2.6026,-2.5891,0,0,0,0,0,-2.5836,-2.5881,-2.5868,-2.5874,-2.59,-2.5928,-2.5931,-2.5916,-2.5891,-2.5912,-2.5909,-2.5885,-2.5943,-2.5917,-2.5923,-2.5955,-2.6012,-2.6018,-2.6022,-2.607,-2.6082,-2.6092,0,0,0,0,0,0,-2.5838,-2.5846,-2.5867,-2.5868,-2.5874,-2.5926,-2.5881,-2.5878,-2.5889,-2.5884,-2.5887,-2.5885,-2.5873,-2.5913,-2.5919,-2.5949,-2.5889,-2.6014,-2.6019,-2.6023,-2.6074,-2.6084,-2.6092,0,0,0,0,0,-2.584,-2.5846,-2.5891,-2.5868,-2.5872,-2.5863,-2.5879,-2.5876,-2.5884,-2.5878,-2.5876,-2.5872,-2.5874,-2.5878,-2.5916,-2.5947,-2.5885,-2.5887,-2.6017,-2.6021,-2.6024,-2.6079,0,0,0,0,0,0,-2.5841,-2.5844,-2.5892,-2.5893,-2.5849,-2.586,-2.5861,-2.5875,-2.5877,-2.5876,-2.5862,-2.5858,-2.5876,-2.5878,-2.5881,-2.5947,-2.5882,-2.5884,-2.5885,-2.602,-2.6023,-2.6025,0,0,0,0,0,0,-2.584,-2.5845,-2.5892,-2.587,-2.5868,-2.5857,-2.5858,-2.5888,-2.5878,-2.5861,-2.5858,-2.586,-2.5871,-2.5879,-2.5881,-2.5928,-2.5879,-2.5881,-2.5883,-2.5884,-2.6022,-2.6024,0,0,0,0,0,0,-2.5842,-2.5846,-2.587,-2.5868,-2.5867,-2.5876,-2.5883,-2.591,-2.5859,-2.5861,-2.5854,-2.5852,-2.5872,-2.5874,-2.5881,-2.5927,-2.5928,-2.5879,-2.5881,-2.5882,-2.5882,0,0,0,0,0,0,0,-2.5843,-2.5822,-2.5887,-2.5867,-2.5865,-2.5901,-2.5902,-2.5902,-2.5859,-2.5856,-2.5854,-2.5853,-2.5867,-2.5869,-2.5871,-2.5927,0,0,-2.5879,-2.588,0,0,0,0,0,0,0,0,-2.582,-2.5821,-2.5887,-2.5887,-2.5887,-2.5901,-2.5902,-2.5902,-2.5858,-2.5857,-2.5855,-2.5853,-2.5867,-2.5869,-2.5871,0,0,0,0,0,0,0,0,0,0,0,0,0,0,0,-2.5887,-2.5887,0,-2.5902,-2.5902,-2.5902,-2.5858,-2.5857,-2.5855,-2.5854,-2.5868,-2.5869,-2.5871,0,0,0,0,0,0,0,0,0,0,0,0,0,0,0,0,0,0,0,0,0,0,0,0,0,0,0,0,0,0,0,0,0,0,0,0,0,0,0,0,0,0,0,0,0,0,0,0,0,0,0,0,0,0,0,0,0,0,0,0,0,0,0,0,0,0,0,0,0]}]]]